Location: Auckland
(36.8670°S, 174.7670°E)
Time: 01:15:12
(UTC+12:00)

Courier 1B Rocket - Pass Details

Date: 21 July 2019
Orbit: 920 x 1202 km, 28.3° (Epoch: 22 August)

Event Time Altitude Azimuth Distance (km) Brightness Sun altitude
Rises 07:53:39 0° 278° (W) 3,986 7.7 3.7°
Reaches altitude 10° 07:56:43 10° 285° (WNW) 2,984 7.1 4.2°
Maximum altitude 08:03:22 38° 350° (N) 1,557 6.4 5.4°
Drops below altitude 10° 08:09:34 10° 56° (NE) 2,785 10.7 6.4°
Sets 08:12:20 0° 64° (ENE) 3,693 10.5 6.9°
